• In India
  • List of Countries
  • For 7 days
  • Water Temperature
  • Satellite Maps
  • Weather Map
  • Weather Widgets
  • user-avatar
    Login

    Hourly Weather Buesaco

    Today, 11 December, Monday

    Time Temperature Precipitation Wind Pressure Humidity
    00:00 +16°C° 0.4 mm 1 mps 617 mmHg 91%
    01:00 +16°C° 0 mm 1 mps 617 mmHg 90%
    02:00 +16°C° 0.5 mm 1 mps 617 mmHg 89%
    03:00 +16°C° 0.5 mm 1 mps 617 mmHg 88%
    04:00 +16°C° 0.5 mm 1 mps 617 mmHg 88%
    05:00 +16°C° 0.3 mm 1 mps 617 mmHg 86%
    06:00 +18°C° 0.3 mm 1 mps 617 mmHg 84%
    07:00 +18°C° 0.3 mm 1 mps 618 mmHg 82%
    08:00 +20°C° 0.1 mm 1 mps 619 mmHg 75%
    09:00 +22°C° 0.1 mm 1 mps 619 mmHg 68%
    10:00 +24°C° 0.1 mm 1 mps 620 mmHg 61%
    11:00 +24°C° 0.4 mm 2 mps 619 mmHg 64%
    12:00 +23°C° 0.4 mm 2 mps 619 mmHg 68%
    13:00 +23°C° 0.4 mm 2 mps 618 mmHg 72%
    14:00 +23°C° 0.7 mm 2 mps 617 mmHg 75%
    15:00 +21°C° 0.7 mm 2 mps 617 mmHg 77%
    16:00 +20°C° 0.7 mm 2 mps 616 mmHg 80%
    17:00 +19°C° 0.7 mm 2 mps 616 mmHg 84%
    18:00 +19°C° 0.7 mm 1 mps 616 mmHg 87%
    19:00 +18°C° 0.7 mm 1 mps 616 mmHg 91%
    20:00 +18°C° 0.3 mm 1 mps 617 mmHg 90%
    21:00 +18°C° 0.3 mm 1 mps 617 mmHg 89%
    22:00 +16°C° 0.3 mm 1 mps 617 mmHg 89%
    23:00 +16°C° 0.1 mm 1 mps 617 mmHg 88%

    Tomorrow, 12 December, Tuesday

    Time Temperature Precipitation Wind Pressure Humidity
    00:00 +16°C° 0.1 mm 1 mps 617 mmHg 88%
    01:00 +16°C° 0.1 mm 1 mps 617 mmHg 87%
    02:00 +16°C° 0 mm 1 mps 617 mmHg 87%
    03:00 +16°C° 0 mm 1 mps 617 mmHg 86%
    04:00 +15°C° 0 mm 1 mps 616 mmHg 86%
    05:00 +16°C° 0 mm 1 mps 617 mmHg 84%
    06:00 +16°C° 0 mm 1 mps 617 mmHg 82%
    07:00 +18°C° 0 mm 1 mps 617 mmHg 80%
    08:00 +20°C° 0 mm 1 mps 618 mmHg 72%
    09:00 +22°C° 0 mm 1 mps 619 mmHg 64%
    10:00 +24°C° 0 mm 1 mps 620 mmHg 56%
    11:00 +24°C° 0.2 mm 2 mps 620 mmHg 58%
    12:00 +24°C° 0.2 mm 2 mps 619 mmHg 60%
    13:00 +24°C° 0.2 mm 2 mps 619 mmHg 62%
    14:00 +23°C° 0.5 mm 2 mps 618 mmHg 66%
    15:00 +23°C° 0.5 mm 2 mps 617 mmHg 69%
    16:00 +21°C° 0.5 mm 2 mps 617 mmHg 72%
    17:00 +20°C° 0.5 mm 1 mps 617 mmHg 79%
    18:00 +19°C° 0.5 mm 1 mps 617 mmHg 85%
    19:00 +18°C° 0.5 mm 1 mps 617 mmHg 91%
    20:00 +16°C° 0.2 mm 1 mps 617 mmHg 91%
    21:00 +16°C° 0.2 mm 1 mps 617 mmHg 90%
    22:00 +15°C° 0.2 mm 1 mps 618 mmHg 90%
    23:00 +15°C° 0.1 mm 1 mps 617 mmHg 89%

    Day after tomorrow, 13 December, Wednesday

    Time Temperature Precipitation Wind Pressure Humidity
    00:00 +15°C° 0.1 mm 1 mps 617 mmHg 87%
    01:00 +15°C° 0.1 mm 1 mps 617 mmHg 86%
    02:00 +15°C° 0.1 mm 1 mps 617 mmHg 86%
    03:00 +15°C° 0.1 mm 1 mps 616 mmHg 85%
    04:00 +15°C° 0.1 mm 1 mps 616 mmHg 85%
    05:00 +15°C° 0 mm 1 mps 617 mmHg 83%
    06:00 +16°C° 0 mm 1 mps 618 mmHg 81%
    07:00 +16°C° 0 mm 1 mps 618 mmHg 79%
    08:00 +20°C° 0 mm 1 mps 619 mmHg 69%
    09:00 +22°C° 0 mm 1 mps 620 mmHg 59%
    10:00 +25°C° 0 mm 1 mps 621 mmHg 49%
    11:00 +25°C° 0.1 mm 2 mps 621 mmHg 50%
    12:00 +25°C° 0.1 mm 2 mps 620 mmHg 50%
    13:00 +26°C° 0.1 mm 2 mps 619 mmHg 51%
    14:00 +25°C° 0.3 mm 2 mps 619 mmHg 55%
    15:00 +24°C° 0.3 mm 2 mps 618 mmHg 59%
    16:00 +23°C° 0.3 mm 2 mps 617 mmHg 63%
    17:00 +20°C° 0.2 mm 2 mps 617 mmHg 73%
    18:00 +19°C° 0.2 mm 1 mps 617 mmHg 82%
    19:00 +15°C° 0.2 mm 0 mps 616 mmHg 92%
    20:00 +15°C° 0.1 mm 0 mps 617 mmHg 91%
    21:00 +16°C° 0.1 mm 1 mps 617 mmHg 90%
    22:00 +16°C° 0.1 mm 1 mps 618 mmHg 90%
    23:00 +16°C° 0 mm 1 mps 618 mmHg 89%

    14 December, Thursday

    Time Temperature Precipitation Wind Pressure Humidity
    00:00 +16°C° 0 mm 1 mps 617 mmHg 88%
    01:00 +16°C° 0 mm 1 mps 617 mmHg 88%
    02:00 +16°C° 0 mm 1 mps 617 mmHg 88%
    03:00 +16°C° 0 mm 1 mps 616 mmHg 88%
    04:00 +16°C° 0 mm 1 mps 616 mmHg 89%
    05:00 +16°C° 0 mm 1 mps 617 mmHg 87%
    06:00 +18°C° 0 mm 1 mps 617 mmHg 85%
    07:00 +18°C° 0 mm 1 mps 618 mmHg 83%
    08:00 +20°C° 0 mm 1 mps 618 mmHg 77%
    09:00 +22°C° 0 mm 1 mps 619 mmHg 70%
    10:00 +23°C° 0 mm 2 mps 620 mmHg 64%
    11:00 +24°C° 0 mm 2 mps 619 mmHg 63%
    12:00 +24°C° 0 mm 2 mps 619 mmHg 62%
    13:00 +25°C° 0 mm 2 mps 618 mmHg 61%
    14:00 +24°C° 0.3 mm 2 mps 618 mmHg 65%
    15:00 +23°C° 0.3 mm 2 mps 617 mmHg 69%
    16:00 +21°C° 0.3 mm 2 mps 616 mmHg 73%
    17:00 +21°C° 0.3 mm 1 mps 616 mmHg 80%
    18:00 +20°C° 0.3 mm 1 mps 616 mmHg 88%
    19:00 +18°C° 0.3 mm 1 mps 617 mmHg 95%
    20:00 +18°C° 0.2 mm 1 mps 617 mmHg 94%
    21:00 +18°C° 0.2 mm 1 mps 617 mmHg 93%
    22:00 +18°C° 0.2 mm 1 mps 618 mmHg 92%
    23:00 +16°C° 0.1 mm 1 mps 618 mmHg 90%

    15 December, Friday

    Time Temperature Precipitation Wind Pressure Humidity
    00:00 +16°C° 0.1 mm 1 mps 617 mmHg 88%
    01:00 +16°C° 0.1 mm 1 mps 617 mmHg 87%
    02:00 +16°C° 0 mm 1 mps 616 mmHg 87%
    03:00 +15°C° 0 mm 1 mps 616 mmHg 86%
    04:00 +15°C° 0 mm 1 mps 616 mmHg 86%
    05:00 +16°C° 0 mm 1 mps 616 mmHg 85%
    06:00 +16°C° 0 mm 1 mps 617 mmHg 83%
    07:00 +16°C° 0 mm 1 mps 618 mmHg 81%
    08:00 +19°C° 0 mm 2 mps 618 mmHg 70%
    09:00 +21°C° 0 mm 2 mps 619 mmHg 58%
    10:00 +24°C° 0 mm 2 mps 620 mmHg 46%
    11:00 +25°C° 0 mm 2 mps 620 mmHg 45%
    12:00 +26°C° 0 mm 2 mps 620 mmHg 43%
    13:00 +26°C° 0 mm 3 mps 619 mmHg 41%
    14:00 +25°C° 0.1 mm 2 mps 618 mmHg 46%
    15:00 +24°C° 0.1 mm 2 mps 618 mmHg 51%
    16:00 +23°C° 0.1 mm 2 mps 617 mmHg 55%
    17:00 +20°C° 0.1 mm 2 mps 617 mmHg 63%
    18:00 +19°C° 0.1 mm 1 mps 616 mmHg 72%
    19:00 +16°C° 0.1 mm 1 mps 616 mmHg 80%
    20:00 +16°C° 0.1 mm 1 mps 617 mmHg 78%
    21:00 +16°C° 0.1 mm 1 mps 617 mmHg 75%
    22:00 +16°C° 0.1 mm 1 mps 617 mmHg 73%
    23:00 +15°C° 0 mm 1 mps 617 mmHg 71%

    16 December, Saturday

    Time Temperature Precipitation Wind Pressure Humidity
    00:00 +15°C° 0 mm 1 mps 617 mmHg 70%
    01:00 +15°C° 0 mm 1 mps 616 mmHg 68%
    02:00 +15°C° 0 mm 1 mps 616 mmHg 69%
    03:00 +15°C° 0 mm 1 mps 616 mmHg 69%
    04:00 +15°C° 0 mm 1 mps 616 mmHg 70%
    05:00 +16°C° 0 mm 1 mps 616 mmHg 70%
    06:00 +16°C° 0 mm 1 mps 617 mmHg 70%
    07:00 +18°C° 0 mm 1 mps 618 mmHg 71%
    08:00 +20°C° 0 mm 1 mps 619 mmHg 64%
    09:00 +23°C° 0 mm 1 mps 620 mmHg 58%
    10:00 +25°C° 0 mm 2 mps 621 mmHg 52%
    11:00 +25°C° 0 mm 2 mps 620 mmHg 53%
    12:00 +25°C° 0 mm 2 mps 619 mmHg 55%
    13:00 +25°C° 0 mm 2 mps 618 mmHg 56%
    14:00 +24°C° 0.3 mm 2 mps 618 mmHg 60%
    15:00 +24°C° 0.3 mm 2 mps 617 mmHg 64%
    16:00 +23°C° 0.3 mm 2 mps 616 mmHg 67%
    17:00 +22°C° 0.2 mm 1 mps 616 mmHg 75%
    18:00 +20°C° 0.2 mm 1 mps 616 mmHg 82%
    19:00 +19°C° 0.2 mm 1 mps 616 mmHg 89%
    20:00 +18°C° 0.1 mm 1 mps 616 mmHg 88%
    21:00 +18°C° 0.1 mm 1 mps 617 mmHg 87%
    22:00 +18°C° 0.1 mm 1 mps 617 mmHg 86%
    23:00 +18°C° 0.1 mm 1 mps 617 mmHg 86%
    Show more